Temp
86 84 83 81 84 84 85 85 85 75 73 76 74 82 85 85 84 82 82 83 80 81 84 84 83 85 82 82 82 81 81 79 76 79 80 78 80 81 75 76 73 73 69
87 83 83 83 84 86 85 85 85 74 72 72 81 82 85 85 85 83 83 84 81 80 82 82 84 88 82 81 81 79 80 80 78 75 79 80 79 77 71 72 78 76 71
86 85 85 85 86 83 83 85 86 83 81 83 85 83 83 83 84 83 82 82 84 82 76 77 84 84 79 82 82 79 77 78 78 75 75 77 77 77 76 76 76 70 71
84 84 84 83 85 86 86 82 85 83 83 82 83 82 83 83 83 82 82 82 83 83 82 82 84 82 80 80 81 80 79 78 76 76 74 74 74 76 74 72 70 71 67
78 83 81 81 84 83 83 83 83 83 83 82 82 82 83 83 87 83 83 81 80 80 82 82 84 82 79 80 79 79 79 76 75 74 73 73 72 72 71 72 70 72 72
73 67 78 75 80 81 81 83 82 83 83 82 82 82 82 86 80 76 80 82 81 80 78 81 83 80 78 76 75 73 73 76 75 73 73 72 73 73 72 72 72 71 69
74 73 76 81 81 80 81 82 81 81 80 81 81 81 81 82 75 72 74 84 79 79 80 80 83 87 80 79 70 69 69 69 71 74 74 73 73 71 73 72 71 70 69
76 79 81 81 81 81 81 81 80 80 80 81 81 81 81 82 72 69 72 83 80 81 81 81 81 81 80 79 75 76 76 70 67 76 72 70 69 70 71 74 72 72 71
76 74 75 78 79 80 79 80 80 78 79 79 81 80 80 81 68 67 69 81 81 79 81 80 77 79 66 67 76 75 71 66 63 63 63 64 65 65 67 71 66 68 66
78 79 78 78 79 78 79 79 79 78 79 77 79 79 77 80 66 63 67 82 77 77 78 70 62 69 63 62 74 75 71 67 66 66 67 67 67 66 66 66 66 65 65
79 79 80 80 77 78 78 78 79 78 77 77 77 78 78 77 78 60 61 76 75 75 75 74 67 59 56 59 62 70 70 69 67 66 65 64 64 65 66 66 66 66 64
78 77 78 78 77 76 76 77 77 76 75 75 75 76 76 77 66 60 61 61 66 75 73 66 60 55 55 58 61 58 59 62 62 62 61 60 61 63 64 65 67 67 68
77 76 77 75 74 74 73 73 74 74 72 70 71 72 73 69 66 61 60 60 61 68 65 58 54 53 56 58 57 58 60 61 61 61 60 60 63 65 66 65 68 68 68
76 75 74 71 70 69 67 63 65 69 70 69 68 66 65 66 65 63 61 60 59 60 59 60 58 58 57 59 61 61 62 63 62 60 59 61 63 64 65 66 66 66 64
72 74 70 72 70 66 57 54 56 59 54 62 68 67 65 63 62 58 59 60 60 57 58 59 59 59 59 59 59 60 60 61 61 61 62 63 64 65 65 66 65 64 63
71 71 69 69 70 70 66 59 48 46 45 45 48 56 51 51 47 47 47 48 48 51 58 58 57 58 57 57 56 57 58 60 63 64 64 64 63 62 62 64 64 63 63
70 68 66 66 66 65 63 61 56 52 47 44 44 46 48 46 46 46 46 47 49 55 58 58 57 57 56 56 57 58 61 63 63 63 62 62 62 62 62 62 62 62 62
65 58 64 65 66 64 62 60 58 56 53 52 47 47 45 45 45 47 48 53 58 57 58 57 57 57 58 59 61 62 62 62 62 62 61 61 62 62 62 61 60 60 60
64 64 65 65 68 64 63 61 58 56 55 54 54 51 48 45 46 47 51 58 57 56 56 56 58 61 62 63 63 62 62 62 62 62 62 62 62 62 61 61 61 57 58
64 61 64 68 67 67 64 61 60 59 58 57 56 56 57 57 57 56 56 56 56 57 60 62 64 64 63 64 63 62 62 61 62 63 62 63 63 63 63 63 62 61 61
65 64 64 69 70 69 67 64 65 64 62 61 59 58 53 59 58 59 61 61 64 68 67 65 63 64 64 64 63 64 65 65 64 64 64 63 64 63 64 63 64 65 63
63 63 65 67 64 66 68 65 67 70 69 68 66 64 50 65 67 68 71 70 71 71 69 67 68 68 67 68 68 69 67 67 67 66 66 65 65 65 66 66 66 65 64
62 61 61 63 61 60 62 62 63 65 72 74 73 71 66 67 75 74 74 74 73 72 72 72 70 71 71 72 73 71 69 69 69 69 69 68 67 67 67 66 67 65 61
61 61 61 60 59 60 60 61 62 61 74 75 74 75 76 76 77 76 75 74 74 72 74 74 74 75 73 73 73 75 74 72 71 70 71 68 67 63 67 67 67 65 63
58 59 61 60 58 57 60 64 68 72 74 74 73 71 71 72 74 73 76 77 76 75 75 76 76 77 76 75 74 72 50 54 69 63 70 70 68 68 67 66 66 65 63
59 59 57 59 61 61 62 67 68 70 71 71 72 72 72 71 73 75 75 76 76 76 75 76 75 76 76 77 75 52 42 46 57 50 70 69 67 67 66 66 67 66 64
MSLP
1010.83 1011.33 1011.85 1012.67 1013.28 1013.51 1013.91 1013.94 1013.56 1013.13 1013.67 1017.02 1015.38 1015.62 1015.19 1014.93 1015.43 1015.94 1015.96 1015.86 1015.97 1016.08 1015.80 1015.68 1015.77 1015.70 1015.76 1015.65 1015.55 1015.51 1015.60 1015.63 1015.93 1015.70 1016.00 1016.05 1016.33 1016.48 1017.25 1017.95 1018.08 1018.16 1018.23
1010.34 1010.99 1011.26 1011.78 1012.32 1012.74 1013.32 1013.50 1013.61 1013.95 1013.36 1014.43 1015.56 1015.87 1015.01 1015.06 1015.30 1015.71 1015.85 1015.74 1016.14 1016.23 1016.02 1015.86 1015.74 1015.71 1015.94 1016.00 1016.08 1016.00 1015.86 1015.57 1015.68 1016.05 1015.81 1016.13 1016.33 1016.65 1017.20 1016.65 1017.21 1017.75 1018.23
1010.10 1009.98 1010.62 1010.85 1011.42 1012.10 1012.56 1013.02 1013.14 1013.52 1013.83 1013.93 1014.11 1014.31 1014.70 1014.96 1015.15 1015.50 1015.61 1015.52 1015.54 1015.98 1016.38 1016.31 1015.59 1015.74 1016.08 1015.96 1016.05 1016.19 1016.17 1016.12 1016.00 1016.18 1016.22 1016.09 1016.50 1016.71 1016.87 1017.11 1017.26 1018.00 1018.03
1009.57 1009.37 1010.31 1010.79 1011.03 1011.30 1011.67 1012.42 1012.88 1013.06 1013.43 1013.69 1013.97 1014.27 1014.54 1014.65 1014.94 1015.15 1015.15 1015.12 1015.20 1015.37 1015.70 1015.46 1015.30 1015.50 1015.69 1015.84 1016.04 1016.14 1016.24 1016.25 1016.08 1016.23 1016.34 1016.50 1016.61 1016.84 1017.08 1017.30 1017.33 1017.53 1018.36
1008.82 1009.58 1010.29 1010.02 1010.33 1011.29 1011.25 1011.58 1012.47 1013.07 1013.45 1013.75 1014.03 1014.18 1014.37 1014.46 1014.42 1014.48 1014.47 1014.70 1015.05 1015.20 1015.12 1015.05 1014.84 1015.08 1015.38 1015.43 1015.83 1015.97 1016.18 1016.48 1016.43 1016.52 1016.58 1016.72 1016.79 1016.90 1017.04 1017.09 1017.11 1016.89 1017.48
1010.46 1010.27 1009.88 1010.45 1010.54 1010.92 1011.20 1011.33 1011.87 1012.44 1012.69 1013.17 1013.47 1013.76 1013.87 1013.98 1013.74 1013.68 1013.79 1014.08 1014.46 1014.77 1014.92 1014.70 1014.70 1014.77 1014.91 1015.24 1015.57 1015.86 1016.16 1016.46 1016.57 1016.63 1016.75 1016.77 1016.77 1016.97 1017.00 1016.95 1016.97 1017.03 1017.32
1009.10 1011.27 1007.77 1008.99 1010.51 1010.81 1010.47 1010.60 1011.23 1011.66 1012.02 1012.34 1012.59 1012.92 1013.14 1013.23 1013.31 1013.30 1013.31 1013.56 1013.92 1014.29 1014.39 1014.50 1014.57 1014.54 1014.82 1015.16 1015.67 1015.99 1016.28 1016.64 1016.81 1016.72 1016.80 1016.99 1017.02 1017.29 1017.02 1017.08 1017.19 1017.28 1017.59
1009.40 1008.56 1008.71 1009.59 1010.35 1010.30 1010.09 1010.23 1010.65 1011.01 1011.37 1011.59 1011.81 1011.95 1012.16 1012.31 1012.54 1012.84 1013.13 1013.21 1013.32 1013.75 1013.93 1014.21 1014.46 1014.61 1014.77 1015.03 1015.62 1015.96 1016.33 1016.93 1017.19 1016.98 1017.06 1017.51 1017.64 1017.62 1017.41 1017.29 1017.40 1017.51 1017.80
1009.11 1009.25 1009.36 1009.67 1009.87 1009.73 1009.83 1010.01 1010.27 1010.79 1011.05 1011.13 1011.14 1011.32 1011.56 1011.68 1011.88 1012.22 1012.72 1013.02 1013.05 1013.31 1013.59 1013.96 1014.36 1014.55 1015.06 1015.12 1015.26 1015.80 1016.41 1017.30 1017.62 1017.51 1017.67 1017.96 1018.06 1017.97 1017.79 1017.42 1017.64 1017.73 1018.15
1009.23 1009.27 1009.11 1008.87 1009.31 1009.62 1009.83 1009.95 1010.10 1010.32 1010.46 1010.58 1010.64 1010.71 1010.75 1010.93 1011.16 1011.65 1012.22 1012.40 1012.70 1013.20 1013.27 1014.31 1014.48 1014.66 1015.31 1015.47 1015.44 1015.69 1016.38 1017.11 1017.35 1017.95 1018.16 1018.04 1018.04 1018.17 1018.14 1018.16 1018.12 1018.28 1018.30
1009.12 1008.95 1008.84 1008.92 1009.40 1009.62 1009.78 1009.81 1009.95 1010.17 1010.27 1010.32 1010.21 1010.14 1010.25 1010.52 1010.72 1011.14 1011.53 1011.80 1012.02 1012.66 1013.16 1013.96 1014.88 1015.26 1015.41 1015.62 1015.86 1016.10 1016.25 1016.83 1017.47 1017.89 1018.34 1018.66 1018.48 1018.54 1018.50 1018.51 1018.38 1018.49 1018.51
1009.40 1009.23 1009.10 1009.20 1009.64 1009.92 1009.97 1009.99 1009.96 1010.09 1010.20 1010.10 1009.99 1009.75 1009.62 1009.78 1010.21 1011.11 1011.73 1012.18 1012.09 1012.39 1013.34 1014.32 1015.34 1015.73 1015.77 1016.04 1016.32 1016.53 1016.64 1017.05 1017.75 1018.37 1018.85 1019.07 1018.85 1018.91 1019.10 1018.83 1018.80 1018.76 1018.77
1009.50 1009.40 1009.46 1009.57 1009.94 1010.15 1010.49 1010.68 1010.58 1010.60 1010.57 1010.46 1010.16 1009.89 1009.75 1010.42 1010.77 1011.15 1012.04 1012.15 1012.20 1013.05 1013.96 1014.89 1015.48 1015.87 1016.36 1016.99 1017.22 1017.46 1017.63 1017.67 1017.83 1018.37 1019.13 1019.38 1018.65 1018.77 1018.95 1019.17 1019.10 1019.10 1019.17
1009.17 1009.33 1009.59 1009.91 1010.33 1010.82 1011.28 1011.61 1011.69 1011.35 1010.91 1010.70 1010.60 1010.79 1011.05 1010.88 1011.38 1012.06 1012.35 1012.67 1013.10 1013.93 1014.78 1015.34 1015.86 1016.26 1016.81 1017.27 1017.56 1017.83 1018.35 1018.60 1018.71 1019.07 1019.12 1019.52 1018.90 1018.81 1019.06 1019.06 1019.20 1019.41 1019.60
1009.28 1009.29 1009.80 1010.10 1010.54 1011.19 1012.06 1012.48 1012.33 1011.91 1012.02 1011.63 1011.02 1011.12 1011.60 1011.43 1010.60 1012.10 1012.50 1012.98 1013.48 1014.17 1014.87 1015.62 1016.21 1016.67 1017.13 1017.51 1017.98 1018.31 1018.38 1018.76 1019.15 1019.25 1019.22 1019.23 1019.03 1018.95 1019.07 1019.14 1019.24 1019.27 1019.43
1009.21 1009.45 1009.98 1010.26 1010.50 1010.93 1011.64 1012.53 1012.83 1012.54 1011.93 1011.55 1011.21 1011.21 1012.34 1011.82 1012.34 1013.02 1013.05 1013.34 1014.01 1014.43 1014.81 1015.57 1016.39 1016.93 1017.58 1018.11 1018.39 1018.47 1018.75 1018.07 1018.51 1018.75 1018.97 1019.01 1019.19 1019.38 1019.38 1019.37 1019.48 1019.67 1019.79
1009.45 1009.71 1010.03 1010.24 1010.48 1011.06 1011.63 1012.22 1012.66 1012.77 1012.48 1012.20 1011.80 1011.78 1012.01 1012.66 1012.95 1013.34 1013.79 1014.39 1014.81 1015.08 1015.29 1016.39 1016.65 1017.27 1017.78 1018.36 1018.71 1018.77 1018.89 1018.67 1018.57 1018.75 1019.22 1019.26 1019.37 1019.49 1019.66 1019.92 1020.02 1020.06 1020.31
1009.74 1009.93 1010.09 1010.32 1010.68 1011.24 1011.85 1012.25 1012.54 1012.72 1013.04 1013.46 1013.44 1013.24 1013.26 1013.48 1013.68 1013.97 1014.51 1014.94 1015.86 1016.26 1016.18 1016.56 1017.39 1017.75 1017.93 1018.24 1018.49 1018.87 1018.84 1019.03 1019.23 1019.09 1019.20 1019.46 1019.56 1019.82 1020.08 1020.30 1020.43 1020.43 1020.58
1009.76 1009.98 1010.10 1010.46 1010.83 1011.37 1011.97 1012.47 1012.88 1013.19 1013.47 1013.87 1014.22 1014.53 1014.69 1014.74 1014.92 1015.20 1015.25 1015.63 1016.37 1016.72 1017.24 1017.26 1017.73 1018.00 1017.70 1017.72 1018.18 1018.82 1019.03 1019.41 1019.32 1019.33 1019.60 1019.61 1019.74 1019.94 1020.37 1020.37 1020.54 1020.65 1020.71
1009.77 1009.94 1010.13 1010.33 1010.92 1011.48 1012.10 1012.69 1013.22 1013.61 1013.89 1014.13 1014.51 1015.02 1015.48 1015.48 1015.74 1016.16 1016.61 1016.60 1016.80 1016.77 1017.32 1017.43 1017.39 1017.50 1017.69 1018.19 1018.55 1019.00 1019.10 1019.31 1019.36 1019.54 1019.69 1019.70 1019.78 1019.92 1020.18 1020.29 1020.47 1020.52 1020.49
1009.74 1009.93 1010.02 1010.07 1010.40 1010.96 1011.62 1012.38 1013.02 1013.56 1014.02 1014.40 1014.62 1014.86 1015.05 1015.24 1015.49 1015.81 1016.15 1016.51 1016.26 1016.14 1016.58 1016.74 1017.05 1017.41 1018.02 1018.21 1018.52 1018.70 1018.85 1018.96 1019.15 1019.41 1019.61 1019.86 1019.98 1020.20 1020.10 1020.31 1020.19 1020.18 1020.48
1009.65 1009.79 1009.98 1010.29 1010.57 1010.97 1011.38 1011.73 1011.85 1012.60 1013.21 1013.82 1014.22 1014.62 1015.07 1014.97 1014.91 1014.54 1014.57 1015.05 1015.27 1015.59 1016.22 1016.67 1016.86 1017.33 1017.62 1017.66 1017.79 1018.04 1018.27 1018.75 1018.97 1019.09 1019.40 1019.69 1019.99 1019.98 1019.91 1020.05 1020.20 1020.21 1020.22
1009.81 1010.06 1010.38 1010.74 1011.04 1011.18 1011.51 1011.68 1011.71 1012.06 1012.30 1012.82 1013.23 1013.83 1014.52 1014.22 1013.25 1013.60 1013.91 1014.40 1014.94 1015.45 1015.69 1016.03 1016.41 1016.77 1017.01 1017.18 1017.22 1017.55 1018.02 1018.23 1018.44 1018.67 1018.97 1019.24 1019.61 1019.66 1019.86 1020.04 1020.05 1020.23 1020.69
1009.95 1010.15 1010.39 1010.81 1011.25 1011.76 1011.90 1012.15 1012.25 1012.19 1011.98 1012.30 1012.51 1012.59 1012.70 1012.82 1013.12 1013.59 1013.97 1014.39 1014.79 1015.14 1015.32 1015.57 1015.82 1016.17 1016.62 1016.88 1016.98 1017.16 1017.35 1017.85 1018.36 1018.90 1018.95 1019.26 1019.59 1019.87 1019.89 1020.01 1019.95 1020.14 1020.58
1010.54 1010.75 1010.95 1011.26 1011.44 1012.34 1012.73 1012.34 1011.31 1011.40 1011.86 1012.21 1012.47 1012.49 1012.71 1012.93 1013.35 1013.76 1014.07 1014.35 1014.59 1014.93 1015.16 1015.29 1015.46 1015.61 1016.03 1016.28 1016.45 1016.70 1017.59 1017.87 1018.28 1018.66 1019.14 1019.40 1019.73 1020.10 1020.14 1020.15 1020.09 1020.28 1020.68
1011.36 1011.93 1011.88 1012.33 1012.31 1011.91 1012.10 1012.06 1011.89 1011.87 1012.01 1012.33 1012.60 1012.83 1013.14 1013.27 1013.46 1013.81 1014.08 1014.31 1014.59 1014.75 1014.91 1015.12 1015.57 1015.84 1016.10 1016.03 1016.32 1017.06 1017.57 1017.99 1018.47 1018.70 1018.87 1019.48 1019.81 1019.99 1020.10 1020.26 1020.20 1020.37 1020.41
Wind_Speed
13 15 14 10 11 10 8 6 3 3 1 6 4 10 5 5 6 5 6 3 2 6 5 4 4 2 4 4 5 4 3 2 2 2 3 2 1 5 10 7 5 5 4
13 11 14 14 13 13 9 8 7 8 6 8 13 9 3 4 5 5 6 6 6 8 5 7 4 3 2 3 3 4 5 5 2 4 3 1 3 5 5 9 2 6 6
12 12 14 14 13 12 11 10 10 10 12 9 4 5 6 7 6 6 7 7 6 4 4 13 4 2 3 3 2 3 4 4 4 2 4 4 4 3 4 5 3 5 5
21 14 13 14 12 13 10 12 11 7 9 8 8 8 9 8 8 8 9 8 6 7 7 6 5 5 6 4 4 0 4 3 3 3 3 3 2 2 3 2 1 4 4
6 9 6 2 10 12 9 7 9 9 8 9 9 10 10 9 9 9 9 7 8 8 7 5 6 5 7 3 2 2 0 2 3 2 2 1 2 1 0 1 1 2 4
9 9 6 10 13 10 8 7 8 9 11 9 10 10 10 9 13 13 11 8 7 7 7 6 6 6 4 3 3 5 2 2 2 2 1 1 2 1 1 1 1 1 2
6 8 17 9 10 11 9 9 10 12 12 12 12 12 12 12 13 9 15 11 8 8 9 7 4 4 4 5 5 7 6 4 3 2 2 2 2 3 3 3 3 2 2
2 3 4 5 8 8 9 9 10 10 11 11 12 13 12 12 14 13 12 10 8 8 6 6 6 6 4 3 6 4 5 7 6 4 7 5 5 5 4 2 2 2 4
5 5 5 5 6 6 8 10 10 10 11 11 12 13 14 13 13 16 11 10 8 7 6 6 4 5 4 1 6 8 8 7 8 13 12 9 9 9 7 2 3 1 2
7 6 5 4 5 6 7 8 9 9 10 9 11 13 16 15 12 14 13 9 7 7 8 7 10 9 6 3 4 5 6 8 7 5 4 6 6 6 9 6 3 3 1
8 8 7 5 5 6 7 5 6 7 9 10 10 11 13 15 13 13 16 11 8 6 6 6 5 6 8 7 3 2 2 7 10 7 5 2 3 4 3 4 5 4 4
9 8 6 6 4 3 4 5 5 5 7 8 10 10 9 12 11 11 9 7 3 5 5 6 7 6 9 10 8 9 14 11 6 5 4 2 3 3 2 2 4 5 4
10 6 5 3 3 3 3 4 3 2 3 3 5 7 7 4 5 8 5 3 6 9 7 11 13 15 13 10 11 12 8 5 6 7 4 2 2 3 2 0 2 3 3
9 6 3 4 4 3 2 2 2 3 4 3 2 2 2 4 5 4 6 9 16 14 16 8 12 14 12 8 7 8 5 3 4 2 3 3 1 3 3 2 3 3 3
7 4 5 4 5 5 5 5 3 1 2 4 3 3 2 3 2 5 8 7 8 11 13 8 7 7 8 8 7 5 4 3 2 1 2 2 1 3 3 3 3 3 2
5 3 4 4 5 3 4 4 10 5 8 7 5 6 3 11 14 13 15 17 14 11 9 10 9 8 8 6 5 4 0 6 5 4 3 3 4 3 3 3 3 2 3
5 3 4 3 3 4 3 3 2 4 15 16 9 9 10 14 20 19 18 15 13 10 11 8 9 8 8 6 3 2 1 3 5 5 4 4 3 3 4 4 4 3 3
3 5 3 4 5 6 5 5 5 4 6 6 13 10 15 16 16 17 16 13 9 7 7 8 6 7 7 6 4 3 4 3 3 4 5 4 4 4 3 4 4 3 3
4 3 3 5 6 8 8 8 7 7 8 8 8 10 12 14 16 14 13 9 8 7 5 5 5 5 4 5 5 4 4 3 3 4 3 3 2 4 0 4 2 1 1
4 4 6 8 10 10 8 8 7 6 7 7 7 7 6 7 7 6 5 6 6 6 6 6 5 5 5 5 5 4 4 3 4 4 3 2 2 3 2 3 2 3 1
3 3 5 7 8 10 11 10 9 9 8 7 6 7 10 9 8 8 8 8 8 7 5 5 5 5 4 5 5 5 5 4 4 5 3 3 1 3 2 2 1 1 3
4 2 4 4 2 7 8 7 11 10 11 10 9 9 11 6 8 9 9 9 8 7 5 6 7 6 5 4 5 5 5 5 4 4 4 5 4 3 1 2 1 2 2
5 6 5 6 5 5 5 4 4 3 7 9 9 9 10 10 5 6 4 8 8 8 7 6 5 5 5 4 3 4 6 6 4 3 4 4 3 1 3 2 1 4 5
7 7 9 10 8 5 4 2 5 9 9 9 7 8 9 7 7 7 7 6 5 6 6 6 6 9 7 6 5 5 4 8 6 4 4 4 4 2 2 1 1 4 6
8 6 8 8 8 4 7 6 3 7 7 6 5 5 5 6 5 5 6 6 5 6 6 4 4 5 10 8 3 6 10 12 10 8 4 3 5 1 0 4 3 3 8
7 5 5 2 3 5 4 3 4 5 5 4 4 4 4 5 6 4 4 5 4 3 4 3 6 6 5 3 5 16 12 14 9 9 5 5 4 1 3 4 2 1 3
Wind_Direction
187 180 186 192 195 212 217 223 173 334 337 123 23 281 213 185 197 193 267 321 314 273 257 261 258 273 292 357 341 338 324 88 14 335 126 220 286 81 47 354 152 130 121
187 179 193 184 193 196 203 214 181 167 239 222 189 209 228 243 219 194 237 261 200 240 274 272 244 232 205 254 280 326 333 339 7 319 331 37 119 101 133 211 104 116 103
201 189 187 184 191 198 195 203 208 194 201 233 210 201 223 239 233 217 212 245 243 204 211 267 203 270 304 270 311 327 333 343 325 353 306 14 76 71 71 59 14 118 101
223 185 196 188 192 196 203 188 214 213 204 213 215 213 225 220 223 228 228 218 247 258 219 252 210 227 243 265 265 265 309 309 310 333 339 7 37 57 96 139 70 136 135
149 221 153 199 193 206 209 204 192 210 218 216 225 220 223 236 237 225 232 210 215 247 254 274 212 190 168 143 223 259 118 306 333 354 337 5 39 35 289 313 343 175 128
20 342 233 179 242 218 210 212 204 211 211 217 221 227 227 227 234 226 214 220 200 221 248 268 265 218 212 119 75 81 102 241 276 287 107 269 274 250 251 263 331 53 150
171 161 249 169 215 223 217 219 215 218 218 217 217 220 227 230 250 232 212 215 206 212 219 235 251 247 166 150 105 112 105 116 68 340 232 24 61 6 6 17 17 63 60
236 216 312 305 261 242 230 232 232 228 221 221 222 224 224 230 211 204 211 216 208 216 232 226 223 247 276 247 147 160 144 64 24 346 72 67 59 11 1 284 325 53 102
239 264 254 231 254 262 251 245 231 229 232 230 230 224 223 230 203 196 189 209 220 216 220 236 299 246 88 219 200 174 125 108 73 73 89 92 69 48 28 351 35 67 120
328 303 299 319 287 270 263 256 251 242 238 235 236 234 231 225 216 199 197 206 212 222 226 116 53 95 119 54 240 194 162 151 136 129 114 79 61 50 41 49 48 48 73
300 287 263 278 284 282 278 271 257 244 245 247 244 240 237 241 227 202 198 220 212 225 185 150 101 91 106 96 68 15 116 119 104 94 95 75 73 62 51 33 24 60 35
282 298 268 263 252 255 315 306 282 268 257 253 251 249 242 236 243 185 211 234 295 195 118 90 108 99 87 84 79 99 98 100 102 94 77 66 57 68 21 71 59 65 75
278 289 278 198 140 83 347 330 290 259 261 298 289 266 273 66 86 132 143 150 98 106 103 103 107 99 92 80 71 61 65 96 119 107 87 275 150 152 154 255 137 115 129
287 280 223 167 139 126 95 46 319 311 296 248 242 52 49 127 127 112 115 98 97 100 111 95 96 91 87 88 80 78 76 50 60 75 136 274 267 185 188 189 161 183 161
293 273 151 163 205 116 65 23 330 343 331 318 306 127 163 161 115 153 141 131 127 126 119 110 101 99 100 97 93 97 122 115 109 212 150 196 66 77 67 43 21 358 59
283 177 179 187 175 146 139 122 55 33 9 331 271 110 49 93 95 94 97 96 98 124 111 114 109 105 100 91 94 111 207 127 158 134 106 73 82 78 55 27 12 14 55
280 186 171 172 120 119 109 103 95 59 56 37 43 102 103 121 107 107 102 93 92 105 107 112 115 118 119 123 133 116 125 37 86 89 86 78 59 78 48 55 43 40 48
193 179 164 143 129 124 117 98 83 75 77 60 36 75 87 98 102 102 99 94 83 68 99 109 115 140 150 160 163 128 96 83 80 91 78 59 66 62 68 70 36 30 12
185 186 163 127 144 116 115 104 94 95 97 98 97 74 71 74 75 69 78 97 108 107 102 114 155 192 173 118 111 128 120 134 117 88 88 91 63 102 152 139 142 139 142
193 226 165 157 143 131 122 116 110 106 105 107 108 104 109 103 104 102 110 123 138 150 172 191 195 122 95 100 107 126 122 115 128 145 150 131 65 59 143 117 127 196 212
180 167 174 166 158 145 142 147 142 138 128 131 137 159 173 153 154 162 166 179 198 183 151 124 115 118 145 154 159 170 173 152 121 120 128 110 251 152 157 204 223 119 94
132 153 143 162 125 140 150 156 152 158 152 156 161 181 207 202 197 184 191 165 155 145 144 149 149 163 163 173 175 152 136 139 147 152 157 157 184 184 160 196 250 197 173
132 114 99 101 100 89 81 79 81 128 167 149 158 173 198 232 163 135 115 126 143 146 149 152 159 156 161 178 172 172 174 153 112 78 160 163 174 88 28 338 27 94 84
126 129 122 110 89 60 49 321 245 215 133 162 182 186 170 144 141 142 133 138 146 145 166 169 168 169 172 174 180 183 125 128 123 94 18 25 104 152 269 100 287 101 126
71 74 120 122 131 162 194 240 76 112 120 87 63 59 55 96 97 141 147 149 158 154 165 169 173 195 168 190 166 113 107 123 126 146 122 68 79 58 47 326 44 2 126
76 77 75 1 237 147 128 194 152 130 131 141 146 139 176 174 158 157 143 144 155 123 111 122 71 38 14 340 148 137 135 130 121 102 105 141 181 327 45 6 202 271 97